Volver al catálogo

STARLINK-2608

ActivoComunicacionesVLEO
NORAD 48365·PAYLOAD·🇺🇸 United States

Lanzado May 4, 2021 desde Cape Canaveral Space Force Station

Loading…

Próximos Pases (próximas 24 horas)

TLE

ActualizadoSource: CelesTrak SupGP

Época: Sep 14, 2026, 21:35 UTC

1 48365C 21038N   26257.89979167 -.00015626  00000+0 -50250-3 0  2571
2 48365  53.1579 187.3138 0001329  93.5134 328.4345 15.31709405    14

Sigue STARLINK-2608 en tiempo real con AllMySat

Download on the App Store